Location: Biltmore Gardens
(41.6070°N, 83.4666°W)
Time: 13:41:14
(UTC+00:00)

Cosmos 2221 - Pass Details

Date: 14 July 2020
Orbit: 592 x 617 km, 82.5° (Epoch: 12 August)

Event Time Altitude Azimuth Distance (km) Brightness Sun altitude
Rises 01:49:26 0° 5° (N) 2,882 6.5 -7.3°
Reaches altitude 10° 01:52:05 10° 21° (NNE) 1,968 5.4 -7.7°
Maximum altitude 01:55:30 22° 73° (ENE) 1,329 4.0 -8.2°
Enters shadow 01:58:39 11° 123° (ESE) 1,871 4.4 -8.7°
